Total_Precipitation_Accumulation
0.91 0.92 0.90 0.82 0.77 0.76 0.78 0.76 0.69 0.61 0.53 0.47 0.42 0.41 0.40 0.37 0.36 0.39 0.41 0.45 0.52 0.56 0.53 0.53 0.56 0.61 0.69 0.75 0.84 0.92 1.02 1.12 1.22 1.05 0.85 0.80 0.84 0.85 0.88 0.77 0.70 0.66 0.61
0.74 0.72 0.72 0.63 0.58 0.58 0.57 0.57 0.52 0.49 0.48 0.47 0.45 0.43 0.39 0.35 0.32 0.33 0.34 0.34 0.38 0.40 0.43 0.43 0.42 0.45 0.52 0.57 0.67 0.74 0.80 0.89 1.05 1.04 0.87 0.80 0.81 0.86 0.91 0.88 0.76 0.65 0.61
0.48 0.47 0.52 0.53 0.51 0.53 0.50 0.48 0.50 0.47 0.44 0.42 0.42 0.41 0.37 0.35 0.35 0.35 0.31 0.31 0.31 0.32 0.35 0.37 0.38 0.42 0.47 0.53 0.61 0.64 0.69 0.76 0.91 0.99 0.91 0.84 0.83 0.87 0.96 0.91 0.76 0.72 0.55
0.39 0.37 0.40 0.44 0.44 0.45 0.46 0.45 0.43 0.40 0.38 0.33 0.31 0.32 0.33 0.31 0.29 0.27 0.26 0.26 0.26 0.26 0.28 0.29 0.32 0.38 0.44 0.50 0.55 0.60 0.69 0.78 0.85 0.93 0.93 0.91 0.91 0.91 0.97 1.01 0.85 0.73 0.59
0.40 0.40 0.40 0.42 0.41 0.42 0.43 0.42 0.38 0.34 0.31 0.27 0.24 0.24 0.26 0.25 0.22 0.21 0.22 0.20 0.22 0.25 0.27 0.27 0.27 0.33 0.41 0.45 0.50 0.61 0.74 0.84 0.85 0.89 0.92 0.94 0.95 1.00 0.98 0.93 0.87 0.73 0.59
0.47 0.48 0.45 0.43 0.43 0.44 0.42 0.38 0.34 0.32 0.29 0.25 0.25 0.23 0.20 0.18 0.20 0.19 0.18 0.21 0.25 0.30 0.34 0.32 0.26 0.25 0.28 0.34 0.42 0.51 0.62 0.75 0.85 0.91 0.93 0.91 0.88 0.92 0.93 0.90 0.90 0.86 0.73
0.52 0.49 0.45 0.40 0.39 0.38 0.34 0.33 0.30 0.29 0.28 0.25 0.25 0.23 0.22 0.16 0.13 0.13 0.15 0.19 0.28 0.35 0.38 0.36 0.30 0.25 0.29 0.35 0.37 0.41 0.49 0.62 0.80 0.93 0.97 0.86 0.89 0.96 1.00 1.00 0.90 0.90 0.86
0.47 0.44 0.37 0.35 0.36 0.34 0.32 0.32 0.29 0.31 0.33 0.29 0.24 0.24 0.24 0.15 0.11 0.12 0.14 0.21 0.30 0.33 0.31 0.31 0.37 0.42 0.35 0.32 0.35 0.47 0.62 0.71 0.72 0.73 0.85 0.86 0.88 0.86 0.83 0.84 0.82 0.88 0.81
0.41 0.37 0.32 0.28 0.28 0.28 0.28 0.30 0.32 0.34 0.39 0.31 0.25 0.26 0.25 0.18 0.12 0.13 0.15 0.22 0.29 0.29 0.27 0.26 0.30 0.38 0.36 0.39 0.49 0.68 0.87 1.01 0.88 0.82 0.85 0.95 0.97 0.85 0.68 0.67 0.86 0.97 0.83
0.33 0.30 0.27 0.27 0.28 0.29 0.31 0.33 0.30 0.33 0.39 0.30 0.22 0.22 0.21 0.19 0.13 0.14 0.18 0.22 0.29 0.31 0.33 0.32 0.34 0.37 0.38 0.49 0.60 0.82 1.04 1.14 0.97 0.90 0.99 1.12 1.07 0.97 0.88 0.88 0.98 0.95 0.82
0.21 0.21 0.23 0.25 0.26 0.23 0.30 0.33 0.32 0.33 0.36 0.33 0.27 0.24 0.21 0.15 0.13 0.15 0.16 0.18 0.25 0.32 0.36 0.41 0.43 0.44 0.42 0.54 0.71 0.87 1.08 1.11 1.03 0.99 0.97 0.98 0.97 0.97 0.90 0.89 0.86 0.81 0.78
0.17 0.19 0.20 0.21 0.18 0.18 0.27 0.31 0.32 0.37 0.35 0.33 0.31 0.27 0.22 0.18 0.12 0.10 0.10 0.11 0.18 0.33 0.44 0.47 0.48 0.47 0.49 0.65 0.79 0.98 1.19 1.28 1.13 0.97 0.84 0.78 0.76 0.79 0.76 0.67 0.60 0.58 0.63
0.19 0.22 0.21 0.19 0.19 0.17 0.21 0.24 0.27 0.34 0.34 0.31 0.29 0.27 0.24 0.21 0.14 0.07 0.07 0.09 0.14 0.25 0.40 0.53 0.54 0.50 0.65 0.94 1.10 1.20 1.37 1.41 1.18 0.91 0.78 0.70 0.63 0.60 0.58 0.57 0.52 0.49 0.47
0.23 0.24 0.22 0.23 0.24 0.19 0.18 0.17 0.18 0.22 0.24 0.28 0.27 0.27 0.25 0.24 0.16 0.11 0.12 0.13 0.16 0.21 0.33 0.50 0.64 0.68 0.84 1.12 1.33 1.42 1.47 1.36 1.09 0.88 0.74 0.66 0.57 0.53 0.53 0.50 0.49 0.45 0.47
0.22 0.19 0.18 0.18 0.19 0.20 0.16 0.12 0.10 0.10 0.09 0.15 0.21 0.23 0.24 0.19 0.12 0.12 0.14 0.16 0.19 0.23 0.30 0.46 0.65 0.75 0.94 1.15 1.28 1.29 1.24 1.14 1.03 0.85 0.72 0.64 0.60 0.55 0.54 0.48 0.45 0.40 0.45
0.20 0.16 0.15 0.13 0.12 0.12 0.14 0.12 0.07 0.05 0.05 0.07 0.10 0.12 0.13 0.12 0.10 0.09 0.11 0.16 0.21 0.27 0.33 0.53 0.70 0.80 0.94 1.07 1.13 1.10 1.02 0.93 0.84 0.75 0.68 0.62 0.58 0.55 0.53 0.45 0.39 0.38 0.44
0.14 0.13 0.12 0.09 0.09 0.10 0.12 0.17 0.19 0.12 0.07 0.07 0.08 0.09 0.09 0.08 0.08 0.08 0.10 0.15 0.18 0.24 0.38 0.58 0.74 0.85 0.95 0.98 0.98 0.94 0.88 0.82 0.72 0.65 0.61 0.57 0.51 0.47 0.45 0.40 0.35 0.35 0.36
0.07 0.05 0.06 0.07 0.07 0.08 0.08 0.09 0.16 0.23 0.23 0.18 0.11 0.07 0.06 0.07 0.08 0.08 0.11 0.15 0.23 0.27 0.43 0.58 0.70 0.75 0.82 0.86 0.84 0.82 0.78 0.70 0.62 0.58 0.57 0.54 0.46 0.40 0.37 0.34 0.31 0.28 0.27
0.05 0.05 0.03 0.03 0.03 0.04 0.04 0.05 0.08 0.13 0.18 0.20 0.17 0.11 0.08 0.09 0.11 0.14 0.16 0.21 0.30 0.36 0.44 0.53 0.61 0.64 0.68 0.71 0.69 0.65 0.63 0.60 0.53 0.48 0.49 0.49 0.46 0.39 0.33 0.26 0.22 0.17 0.18
0.03 0.02 0.01 0.01 0.01 0.02 0.03 0.04 0.06 0.09 0.12 0.15 0.17 0.15 0.13 0.20 0.27 0.25 0.21 0.21 0.26 0.34 0.41 0.49 0.51 0.51 0.51 0.53 0.50 0.45 0.45 0.45 0.43 0.42 0.42 0.41 0.39 0.33 0.26 0.22 0.18 0.16 0.15
0.01 0.01 0.01 0.00 0.01 0.01 0.02 0.04 0.05 0.06 0.10 0.14 0.13 0.11 0.18 0.25 0.33 0.31 0.28 0.28 0.31 0.34 0.35 0.38 0.41 0.42 0.37 0.35 0.35 0.34 0.35 0.36 0.36 0.37 0.35 0.34 0.31 0.26 0.20 0.15 0.12 0.10 0.09
0.01 0.01 0.00 0.00 0.01 0.01 0.01 0.02 0.03 0.04 0.07 0.10 0.11 0.10 0.18 0.24 0.31 0.33 0.33 0.34 0.36 0.37 0.35 0.33 0.32 0.33 0.34 0.33 0.31 0.30 0.30 0.30 0.32 0.33 0.31 0.29 0.26 0.20 0.15 0.11 0.08 0.06 0.06
0.00 0.00 0.00 0.00 0.00 0.01 0.01 0.01 0.02 0.03 0.04 0.06 0.07 0.09 0.14 0.24 0.30 0.36 0.39 0.39 0.38 0.36 0.31 0.28 0.29 0.31 0.30 0.27 0.25 0.24 0.24 0.25 0.28 0.30 0.30 0.26 0.21 0.17 0.12 0.09 0.06 0.05 0.03
0.00 0.00 0.00 0.00 0.00 0.00 0.01 0.01 0.02 0.02 0.03 0.04 0.05 0.08 0.12 0.19 0.25 0.33 0.40 0.42 0.44 0.42 0.37 0.33 0.31 0.30 0.27 0.24 0.24 0.22 0.18 0.19 0.22 0.25 0.26 0.22 0.16 0.12 0.09 0.07 0.05 0.04 0.03
0.00 0.00 0.00 0.00 0.00 0.00 0.01 0.01 0.01 0.01 0.01 0.02 0.03 0.05 0.07 0.12 0.18 0.25 0.31 0.37 0.41 0.45 0.45 0.42 0.38 0.32 0.26 0.21 0.17 0.14 0.16 0.19 0.17 0.17 0.22 0.19 0.12 0.08 0.07 0.06 0.05 0.04 0.04
0.00 0.00 0.00 0.00 0.00 0.00 0.00 0.01 0.01 0.01 0.01 0.01 0.02 0.03 0.05 0.09 0.13 0.17 0.20 0.22 0.26 0.33 0.39 0.44 0.43 0.33 0.24 0.19 0.17 0.16 0.15 0.10 0.07 0.07 0.16 0.17 0.11 0.08 0.07 0.06 0.05 0.04 0.05